This is the latest recevied weather packets stored in our database for station/object F5OZP-13. If no packets are shown the sender has not sent any weather packets the latest 10 day(s).
| Time | Temp. | Humidity | Pressure | Rain* | Wind** | Luminosity | Snow |
|---|---|---|---|---|---|---|---|
| 1777645803 | 26.67° C | 99% | 1019.8 hPa | - | - | 23 W/m² | - |
| 1777645495 | 26.11° C | 99% | 1019.8 hPa | - | - | 23 W/m² | - |
| 1777645187 | 26.67° C | 99% | 1019.8 hPa | - | - | 26 W/m² | - |
| 1777644879 | 26.11° C | 99% | 1019.9 hPa | - | - | 0 W/m² | - |
| 1777644583 | 27.22° C | 99% | 1020 hPa | - | - | 25 W/m² | - |
| 1777644267 | 26.67° C | 99% | 1019.9 hPa | - | - | 32 W/m² | - |
| 1777643959 | 27.78° C | 99% | 1020 hPa | - | - | 36 W/m² | - |
| 1777643651 | 28.33° C | 99% | 1020 hPa | - | - | 37 W/m² | - |
| 1777643343 | 27.78° C | 99% | 1020.1 hPa | - | - | 42 W/m² | - |
| 1777643035 | 26.67° C | 99% | 1020.1 hPa | - | - | 37 W/m² | - |
| 1777642735 | 26.67° C | 99% | 1020.1 hPa | - | - | 40 W/m² | - |
| 1777642418 | 26.67° C | 99% | 1020.1 hPa | - | - | 38 W/m² | - |
| 1777642110 | 25.56° C | 99% | 1020.2 hPa | - | - | 37 W/m² | - |
| 1777641802 | 26.67° C | 99% | 1020.2 hPa | - | - | 38 W/m² | - |
| 1777641494 | 26.67° C | 99% | 1020.2 hPa | - | - | 39 W/m² | - |
| 1777641186 | 26.11° C | 99% | 1020.3 hPa | - | - | 39 W/m² | - |
| 1777640890 | 26.11° C | 99% | 1020.2 hPa | - | - | 38 W/m² | - |
| 1777640574 | 26.11° C | 99% | 1020.3 hPa | - | - | 38 W/m² | - |
| 1777640266 | 25.56° C | 99% | 1020.4 hPa | - | - | 38 W/m² | - |
| 1777639958 | 26.11° C | 99% | 1020.4 hPa | - | - | 0 W/m² | - |
| 1777639650 | 25.56° C | 99% | 1020.4 hPa | - | - | 39 W/m² | - |
| 1777639342 | 26.11° C | 99% | 1020.5 hPa | - | - | 39 W/m² | - |
| 1777639042 | 26.67° C | 99% | 1020.4 hPa | - | - | 43 W/m² | - |
| 1777638725 | 24.44° C | 99% | 1020.4 hPa | - | - | 46 W/m² | - |
| 1777638418 | 25° C | 99% | 1020.6 hPa | - | - | 44 W/m² | - |
* Rain since midnight (hover to see other rain measurements)
** Current wind speed in m/s (hover to see current wind gust speed)